When you browse on this site, cookies collect data to enhance your experience and personalize the content and advertising you see.
Visit our Privacy Policy to learn more. By continuing to use the site, you agree to this use of cookies and data.
  • In Hungary
  • List of Countries
  • For 7 days
  • Water Temperature
  • Satellite Maps
  • Weather Map
  • News
  • Weather Widgets
  • user-avatar
    Login

    Hourly Weather Al-Kunajtira

    Today, 11 December, Tuesday

    Time Temperature Precipitation Wind Pressure Humidity
    00:00 +13°C° 0.8 mm 3 mps 734 mmHg 86%
    01:00 +13°C° 0.8 mm 4 mps 734 mmHg 86%
    02:00 +13°C° 0.8 mm 4 mps 734 mmHg 86%
    03:00 +14°C° 0.8 mm 5 mps 733 mmHg 84%
    04:00 +14°C° 0.8 mm 5 mps 733 mmHg 82%
    05:00 +14°C° 0.8 mm 6 mps 733 mmHg 81%
    06:00 +14°C° 0.7 mm 6 mps 733 mmHg 80%
    07:00 +14°C° 0.7 mm 7 mps 732 mmHg 80%
    08:00 +14°C° 0.7 mm 7 mps 732 mmHg 79%
    09:00 +15°C° 1.2 mm 7 mps 733 mmHg 78%
    10:00 +15°C° 1.2 mm 7 mps 733 mmHg 77%
    11:00 +15°C° 1.2 mm 7 mps 733 mmHg 76%
    12:00 +15°C° 0.3 mm 7 mps 733 mmHg 73%
    13:00 +16°C° 0.3 mm 7 mps 733 mmHg 70%
    14:00 +16°C° 0.3 mm 6 mps 733 mmHg 66%
    15:00 +15°C° 0 mm 5 mps 733 mmHg 69%
    16:00 +15°C° 0 mm 5 mps 734 mmHg 71%
    17:00 +14°C° 0 mm 4 mps 734 mmHg 73%
    18:00 +14°C° 0 mm 3 mps 734 mmHg 74%
    19:00 +13°C° 0 mm 3 mps 734 mmHg 76%
    20:00 +13°C° 0 mm 3 mps 734 mmHg 78%
    21:00 +13°C° 0.1 mm 3 mps 734 mmHg 80%
    22:00 +13°C° 0.1 mm 3 mps 734 mmHg 82%
    23:00 +13°C° 0.1 mm 3 mps 734 mmHg 84%

    Tomorrow, 12 December, Wednesday

    Time Temperature Precipitation Wind Pressure Humidity
    00:00 +13°C° 1.1 mm 4 mps 733 mmHg 85%
    01:00 +13°C° 1.1 mm 5 mps 733 mmHg 87%
    02:00 +13°C° 1.1 mm 6 mps 732 mmHg 88%
    03:00 +14°C° 1.4 mm 7 mps 732 mmHg 87%
    04:00 +14°C° 1.4 mm 7 mps 732 mmHg 85%
    05:00 +13°C° 1.4 mm 8 mps 731 mmHg 84%
    06:00 +13°C° 0.7 mm 8 mps 732 mmHg 83%
    07:00 +13°C° 0.7 mm 8 mps 732 mmHg 81%
    08:00 +13°C° 0.7 mm 8 mps 732 mmHg 79%
    09:00 +15°C° 0.6 mm 9 mps 732 mmHg 76%
    10:00 +14°C° 0.6 mm 10 mps 732 mmHg 72%
    11:00 +16°C° 0.6 mm 11 mps 732 mmHg 69%
    12:00 +16°C° 0.5 mm 10 mps 732 mmHg 69%
    13:00 +14°C° 0.5 mm 10 mps 732 mmHg 69%
    14:00 +14°C° 0.5 mm 10 mps 731 mmHg 69%
    15:00 +15°C° 0.1 mm 9 mps 731 mmHg 68%
    16:00 +13°C° 0.1 mm 9 mps 732 mmHg 67%
    17:00 +13°C° 0.1 mm 8 mps 732 mmHg 65%
    18:00 +12°C° 0 mm 8 mps 732 mmHg 65%
    19:00 +12°C° 0 mm 9 mps 733 mmHg 65%
    20:00 +11°C° 0 mm 9 mps 733 mmHg 65%
    21:00 +11°C° 0 mm 9 mps 733 mmHg 66%
    22:00 +11°C° 0 mm 8 mps 734 mmHg 67%
    23:00 +11°C° 0 mm 8 mps 734 mmHg 68%

    Day after tomorrow, 13 December, Thursday

    Time Temperature Precipitation Wind Pressure Humidity
    00:00 +10°C° 0 mm 7 mps 735 mmHg 69%
    01:00 +10°C° 0 mm 7 mps 735 mmHg 70%
    02:00 +10°C° 0 mm 6 mps 736 mmHg 70%
    03:00 +10°C° 0 mm 6 mps 736 mmHg 71%
    04:00 +10°C° 0 mm 5 mps 736 mmHg 71%
    05:00 +11°C° 0 mm 4 mps 736 mmHg 72%
    06:00 +11°C° 0 mm 4 mps 737 mmHg 71%
    07:00 +11°C° 0 mm 4 mps 738 mmHg 70%
    08:00 +11°C° 0 mm 3 mps 738 mmHg 69%
    09:00 +12°C° 0 mm 4 mps 738 mmHg 63%
    10:00 +13°C° 0 mm 4 mps 739 mmHg 57%
    11:00 +14°C° 0 mm 5 mps 739 mmHg 51%
    12:00 +14°C° 0 mm 5 mps 739 mmHg 51%
    13:00 +14°C° 0 mm 5 mps 739 mmHg 51%
    14:00 +14°C° 0 mm 5 mps 739 mmHg 51%
    15:00 +13°C° 0 mm 4 mps 739 mmHg 55%
    16:00 +12°C° 0 mm 3 mps 739 mmHg 60%
    17:00 +12°C° 0 mm 2 mps 740 mmHg 64%
    18:00 +12°C° 0 mm 1 mps 740 mmHg 65%
    19:00 +12°C° 0 mm 1 mps 740 mmHg 67%
    20:00 +11°C° 0 mm 1 mps 741 mmHg 68%
    21:00 +11°C° 0 mm 1 mps 741 mmHg 69%
    22:00 +10°C° 0 mm 0 mps 741 mmHg 70%
    23:00 +10°C° 0 mm 0 mps 741 mmHg 71%

    14 December, Friday

    Time Temperature Precipitation Wind Pressure Humidity
    00:00 +9°C° 0 mm 0 mps 741 mmHg 72%
    01:00 +9°C° 0 mm 0 mps 741 mmHg 73%
    02:00 +9°C° 0 mm 0 mps 741 mmHg 73%
    03:00 +9°C° 0 mm 0 mps 741 mmHg 74%
    04:00 +10°C° 0 mm 1 mps 741 mmHg 74%
    05:00 +10°C° 0 mm 1 mps 741 mmHg 74%
    06:00 +10°C° 0 mm 1 mps 742 mmHg 73%
    07:00 +11°C° 0 mm 1 mps 742 mmHg 71%
    08:00 +11°C° 0 mm 1 mps 742 mmHg 70%
    09:00 +12°C° 0 mm 1 mps 742 mmHg 67%
    10:00 +13°C° 0 mm 1 mps 742 mmHg 64%
    11:00 +14°C° 0 mm 1 mps 742 mmHg 61%
    12:00 +15°C° 0 mm 1 mps 742 mmHg 60%
    13:00 +15°C° 0 mm 1 mps 742 mmHg 60%
    14:00 +15°C° 0 mm 1 mps 741 mmHg 59%
    15:00 +15°C° 0 mm 1 mps 741 mmHg 63%
    16:00 +14°C° 0 mm 1 mps 741 mmHg 66%
    17:00 +13°C° 0 mm 1 mps 742 mmHg 70%
    18:00 +13°C° 0 mm 1 mps 742 mmHg 71%
    19:00 +13°C° 0 mm 1 mps 742 mmHg 73%
    20:00 +12°C° 0 mm 1 mps 742 mmHg 75%
    21:00 +12°C° 0 mm 1 mps 742 mmHg 75%
    22:00 +12°C° 0 mm 1 mps 742 mmHg 76%
    23:00 +12°C° 0 mm 1 mps 742 mmHg 77%

    15 December, Saturday

    Time Temperature Precipitation Wind Pressure Humidity
    00:00 +11°C° 0 mm 1 mps 742 mmHg 77%
    01:00 +11°C° 0 mm 1 mps 742 mmHg 78%
    02:00 +10°C° 0 mm 2 mps 742 mmHg 78%
    03:00 +10°C° 0 mm 2 mps 742 mmHg 79%
    04:00 +10°C° 0 mm 2 mps 742 mmHg 79%
    05:00 +9°C° 0 mm 2 mps 741 mmHg 80%
    06:00 +10°C° 0 mm 2 mps 742 mmHg 78%
    07:00 +10°C° 0 mm 2 mps 742 mmHg 77%
    08:00 +10°C° 0 mm 2 mps 742 mmHg 75%
    09:00 +12°C° 0 mm 3 mps 742 mmHg 70%
    10:00 +13°C° 0 mm 3 mps 742 mmHg 65%
    11:00 +14°C° 0 mm 3 mps 742 mmHg 60%
    12:00 +15°C° 0 mm 4 mps 741 mmHg 58%
    13:00 +15°C° 0 mm 4 mps 741 mmHg 56%
    14:00 +17°C° 0 mm 4 mps 740 mmHg 54%
    15:00 +15°C° 0 mm 4 mps 740 mmHg 58%
    16:00 +14°C° 0 mm 4 mps 740 mmHg 62%
    17:00 +13°C° 0 mm 4 mps 740 mmHg 65%
    18:00 +13°C° 0 mm 4 mps 740 mmHg 67%
    19:00 +12°C° 0 mm 4 mps 740 mmHg 68%
    20:00 +12°C° 0 mm 4 mps 741 mmHg 70%
    21:00 +11°C° 0 mm 4 mps 740 mmHg 71%
    22:00 +11°C° 0 mm 4 mps 740 mmHg 72%
    23:00 +11°C° 0 mm 4 mps 740 mmHg 73%

    16 December, Sunday

    Time Temperature Precipitation Wind Pressure Humidity
    00:00 +10°C° 0 mm 4 mps 740 mmHg 74%
    01:00 +10°C° 0 mm 4 mps 739 mmHg 75%
    02:00 +9°C° 0 mm 5 mps 739 mmHg 76%
    03:00 +9°C° 0 mm 5 mps 739 mmHg 77%
    04:00 +9°C° 0 mm 5 mps 739 mmHg 78%
    05:00 +8°C° 0 mm 5 mps 738 mmHg 79%
    06:00 +9°C° 0 mm 5 mps 738 mmHg 78%
    07:00 +9°C° 0 mm 5 mps 739 mmHg 76%
    08:00 +9°C° 0 mm 6 mps 739 mmHg 75%
    09:00 +11°C° 0 mm 6 mps 739 mmHg 71%
    10:00 +13°C° 0 mm 6 mps 738 mmHg 66%
    11:00 +14°C° 0 mm 6 mps 738 mmHg 62%
    12:00 +15°C° 0 mm 6 mps 738 mmHg 61%
    13:00 +15°C° 0 mm 6 mps 737 mmHg 59%
    14:00 +16°C° 0 mm 7 mps 737 mmHg 58%
    15:00 +15°C° 0 mm 6 mps 737 mmHg 61%
    16:00 +14°C° 0 mm 6 mps 737 mmHg 64%
    17:00 +13°C° 0 mm 6 mps 737 mmHg 67%
    18:00 +13°C° 0 mm 6 mps 737 mmHg 68%
    19:00 +12°C° 0 mm 5 mps 737 mmHg 70%
    20:00 +12°C° 0 mm 5 mps 738 mmHg 72%
    21:00 +10°C° 0 mm 5 mps 738 mmHg 74%
    22:00 +11°C° 0 mm 4 mps 737 mmHg 75%
    23:00 +11°C° 0 mm 4 mps 737 mmHg 77%
    Show more